CCA1636 ZSAM-ZSPD

Flight info

Callsign CCA1636
Flight time N/A
Altitude 40100
Route K0854S1220 DOVPU9Z DOVPU W643 FOC W644 ANLUD/K0850S1250 B221 SHZ W58 BK BK83A
Aircraft A343/H-SDE2E3FGHIJ4J5M1RWXY/LB1D1

Departure

Time 2026-05-06 12:31
Airport Xiamen Gaoqi International Airport (ZSAM)

Arrival

Time N/A
Airport Shanghai Pudong International Airport (ZSPD)
Time Latitude Longitude Altitude Speed Heading
2026-05-06 12:15 24.53828 118.12632 62 ft 0 kts 143°
2026-05-06 12:19 24.53829 118.12631 62 ft 2 kts 143°
2026-05-06 12:20 24.53851 118.12615 53 ft 4 kts 153°
2026-05-06 12:20 24.53876 118.12604 53 ft 4 kts 164°
2026-05-06 12:20 24.53901 118.12598 54 ft 2 kts 172°
2026-05-06 12:20 24.53908 118.12597 56 ft 0 kts 172°
2026-05-06 12:24 24.53907 118.12597 62 ft 1 kts 172°
2026-05-06 12:24 24.53904 118.12596 62 ft 0 kts 184°
2026-05-06 12:25 24.53902 118.12594 62 ft 0 kts 198°
2026-05-06 12:25 24.53900 118.12590 62 ft 1 kts 220°
2026-05-06 12:25 24.53887 118.12572 53 ft 5 kts 231°
2026-05-06 12:25 24.53856 118.12531 53 ft 9 kts 231°
2026-05-06 12:26 24.53815 118.12471 50 ft 11 kts 232°
2026-05-06 12:26 24.53760 118.12394 60 ft 14 kts 232°
2026-05-06 12:26 24.53698 118.12306 55 ft 14 kts 241°
2026-05-06 12:26 24.53730 118.12233 55 ft 11 kts 317°
2026-05-06 12:27 24.53776 118.12179 57 ft 4 kts 278°
2026-05-06 12:27 24.53766 118.12151 57 ft 5 kts 243°
2026-05-06 12:27 24.53734 118.12107 56 ft 9 kts 231°
2026-05-06 12:27 24.53688 118.12043 61 ft 12 kts 232°
2026-05-06 12:28 24.53629 118.11959 54 ft 15 kts 232°
2026-05-06 12:28 24.53558 118.11859 57 ft 18 kts 232°
2026-05-06 12:28 24.53476 118.11745 59 ft 20 kts 231°
2026-05-06 12:28 24.53460 118.11680 62 ft 4 kts 306°
2026-05-06 12:29 24.53483 118.11659 59 ft 0 kts 322°
2026-05-06 12:29 24.53485 118.11657 60 ft 2 kts 322°
2026-05-06 12:29 24.53515 118.11631 61 ft 9 kts 322°
2026-05-06 12:30 24.53573 118.11599 59 ft 5 kts
2026-05-06 12:30 24.53600 118.11631 61 ft 8 kts 53°
2026-05-06 12:30 24.53671 118.11732 56 ft 35 kts 51°
2026-05-06 12:30 24.53965 118.12142 53 ft 102 kts 52°
2026-05-06 12:31 24.54523 118.12927 51 ft 156 kts 52°
2026-05-06 12:31 24.55254 118.13922 487 ft 173 kts 51°
2026-05-06 12:31 24.56051 118.14985 1076 ft 189 kts 52°
2026-05-06 12:31 24.56920 118.16235 1403 ft 223 kts 54°
2026-05-06 12:32 24.57882 118.17618 2262 ft 224 kts 52°
2026-05-06 12:32 24.58835 118.18955 2741 ft 210 kts 52°
2026-05-06 12:32 24.59689 118.20145 2985 ft 191 kts 52°
2026-05-06 12:32 24.60489 118.21270 3804 ft 178 kts 51°
2026-05-06 12:33 24.61237 118.22309 4756 ft 172 kts 48°
2026-05-06 12:33 24.62074 118.23271 5408 ft 182 kts 42°
2026-05-06 12:33 24.63036 118.24262 5965 ft 195 kts 41°
2026-05-06 12:33 24.64046 118.25286 6663 ft 202 kts 41°
2026-05-06 12:34 24.65093 118.26349 7393 ft 207 kts 41°
2026-05-06 12:34 24.66166 118.27442 8135 ft 212 kts 41°
2026-05-06 12:34 24.67260 118.28557 8890 ft 216 kts 41°
2026-05-06 12:34 24.68359 118.29681 9631 ft 220 kts 40°
2026-05-06 12:35 24.69495 118.30841 10361 ft 224 kts 40°
2026-05-06 12:35 24.70642 118.32015 11071 ft 226 kts 40°
2026-05-06 12:35 24.71802 118.33202 11815 ft 228 kts 40°
2026-05-06 12:35 24.72975 118.34393 12572 ft 230 kts 40°
2026-05-06 12:36 24.74149 118.35604 13320 ft 233 kts 41°
2026-05-06 12:36 24.75284 118.36914 13882 ft 246 kts 45°
2026-05-06 12:36 24.76466 118.38347 14353 ft 259 kts 46°
2026-05-06 12:36 24.77713 118.39853 14860 ft 272 kts 46°
2026-05-06 12:37 24.79012 118.41409 15441 ft 280 kts 45°
2026-05-06 12:37 24.80351 118.43006 16099 ft 286 kts 45°
2026-05-06 12:37 24.81660 118.44561 16737 ft 290 kts 45°
2026-05-06 12:37 24.83045 118.46206 17415 ft 295 kts 45°
2026-05-06 12:38 24.84450 118.47872 18085 ft 299 kts 46°
2026-05-06 12:38 24.85876 118.49563 18695 ft 303 kts 46°
2026-05-06 12:38 24.87322 118.51279 19246 ft 307 kts 46°
2026-05-06 12:38 24.88774 118.52990 19805 ft 311 kts 45°
2026-05-06 12:39 24.90280 118.54746 20298 ft 318 kts 45°
2026-05-06 12:39 24.91833 118.56556 20582 ft 331 kts 46°
2026-05-06 12:39 24.93453 118.58447 20841 ft 345 kts 46°
2026-05-06 12:39 24.95132 118.60412 21106 ft 359 kts 46°
2026-05-06 12:40 24.96858 118.62433 21342 ft 373 kts 46°
2026-05-06 12:40 24.98672 118.64558 21608 ft 386 kts 46°
2026-05-06 12:40 25.00542 118.66751 21863 ft 400 kts 46°
2026-05-06 12:40 25.02463 118.69004 22095 ft 413 kts 46°
2026-05-06 12:41 25.04474 118.71365 22297 ft 427 kts 46°
2026-05-06 12:41 25.06538 118.73789 22487 ft 441 kts 46°
2026-05-06 12:41 25.08675 118.76300 22653 ft 454 kts 46°
2026-05-06 12:41 25.10878 118.78889 22763 ft 468 kts 46°
2026-05-06 12:42 25.13104 118.81508 22974 ft 477 kts 46°
2026-05-06 12:42 25.15392 118.84201 23329 ft 484 kts 46°
2026-05-06 12:42 25.17719 118.86943 23700 ft 488 kts 46°
2026-05-06 12:42 25.20053 118.89694 24069 ft 491 kts 46°
2026-05-06 12:43 25.22396 118.92457 24475 ft 494 kts 46°
2026-05-06 12:43 25.24747 118.95232 24878 ft 496 kts 46°
2026-05-06 12:43 25.27113 118.98025 25265 ft 499 kts 46°
2026-05-06 12:43 25.29469 119.00785 25657 ft 501 kts 45°
2026-05-06 12:44 25.31881 119.03591 26059 ft 503 kts 45°
2026-05-06 12:44 25.34302 119.06402 26463 ft 505 kts 45°
2026-05-06 12:44 25.36746 119.09239 26839 ft 508 kts 45°
2026-05-06 12:44 25.39159 119.12044 27227 ft 510 kts 45°
2026-05-06 12:45 25.41612 119.14898 27593 ft 513 kts 45°
2026-05-06 12:45 25.44078 119.17772 27974 ft 515 kts 44°
2026-05-06 12:45 25.49048 119.23574 28667 ft 520 kts 44°
2026-05-06 12:46 25.51525 119.26469 29000 ft 522 kts 44°
2026-05-06 12:46 25.54013 119.29379 29380 ft 523 kts 44°
2026-05-06 12:46 25.56507 119.32315 29905 ft 521 kts 44°
2026-05-06 12:46 25.58986 119.35244 30361 ft 520 kts 44°
2026-05-06 12:47 25.61468 119.38178 30535 ft 524 kts 44°
2026-05-06 12:47 25.63953 119.41118 30749 ft 527 kts 44°
2026-05-06 12:47 25.66468 119.44095 31081 ft 527 kts 44°
2026-05-06 12:47 25.68979 119.47070 31478 ft 525 kts 44°
2026-05-06 12:48 25.71469 119.50022 31885 ft 524 kts 44°
2026-05-06 12:48 25.73961 119.52977 32299 ft 522 kts 44°
2026-05-06 12:48 25.76495 119.55772 32731 ft 516 kts 38°
2026-05-06 12:48 25.79354 119.58123 33233 ft 507 kts 28°
2026-05-06 12:49 25.82402 119.60080 33636 ft 503 kts 26°
2026-05-06 12:49 25.85483 119.61918 34079 ft 500 kts 24°
2026-05-06 12:49 25.88549 119.63678 34409 ft 497 kts 24°
2026-05-06 12:49 25.91608 119.65405 34693 ft 497 kts 23°
2026-05-06 12:50 25.94696 119.67138 34983 ft 496 kts 23°
2026-05-06 12:50 25.97796 119.68859 35247 ft 495 kts 23°
2026-05-06 12:50 26.00848 119.70552 35522 ft 495 kts 22°
2026-05-06 12:50 26.03937 119.72271 35782 ft 494 kts 22°
2026-05-06 12:51 26.07104 119.73681 36027 ft 487 kts 12°
2026-05-06 12:51 26.10416 119.74337 36291 ft 479 kts 359°
2026-05-06 12:51 26.13704 119.74390 36580 ft 475 kts 355°
2026-05-06 12:51 26.17003 119.74275 36868 ft 473 kts 353°
2026-05-06 12:52 26.20292 119.74074 37161 ft 471 kts 352°
2026-05-06 12:52 26.23532 119.73842 37411 ft 470 kts 352°
2026-05-06 12:52 26.26815 119.73600 37694 ft 469 kts 352°
2026-05-06 12:52 26.30081 119.73368 37979 ft 467 kts 352°
2026-05-06 12:53 26.33278 119.73150 38271 ft 466 kts 352°
2026-05-06 12:53 26.36530 119.72937 38539 ft 465 kts 352°
2026-05-06 12:53 26.39740 119.72732 38780 ft 464 kts 352°
2026-05-06 12:53 26.42996 119.72586 38974 ft 466 kts 356°
2026-05-06 12:54 26.46236 119.72996 39142 ft 473 kts
2026-05-06 12:54 26.49357 119.74184 39331 ft 483 kts 21°
2026-05-06 12:54 26.52317 119.75949 39479 ft 487 kts 25°
2026-05-06 12:54 26.55253 119.77918 39653 ft 488 kts 27°
2026-05-06 12:55 26.58091 119.79928 39825 ft 488 kts 27°
2026-05-06 12:55 26.60975 119.82011 39998 ft 488 kts 27°
2026-05-06 12:55 26.63806 119.84057 40178 ft 487 kts 27°
2026-05-06 12:55 26.66670 119.86113 40382 ft 486 kts 27°
2026-05-06 12:56 26.69514 119.88138 40496 ft 484 kts 27°
2026-05-06 12:56 26.72326 119.90133 40229 ft 479 kts 27°
2026-05-06 12:56 26.75158 119.92132 40131 ft 481 kts 27°
2026-05-06 12:57 26.80843 119.96133 40134 ft 487 kts 27°
2026-05-06 12:57 26.86561 120.00166 40137 ft 487 kts 27°
2026-05-06 12:58 26.92298 120.04233 40138 ft 487 kts 27°
2026-05-06 12:58 26.98006 120.08281 40137 ft 487 kts 27°
2026-05-06 12:59 27.03750 120.12357 40142 ft 487 kts 27°
2026-05-06 12:59 27.09488 120.16436 40140 ft 487 kts 27°
2026-05-06 13:00 27.15186 120.20493 40159 ft 486 kts 27°
2026-05-06 13:00 27.20898 120.24524 40151 ft 486 kts 27°
2026-05-06 13:01 27.26647 120.28570 40143 ft 486 kts 27°
2026-05-06 13:01 27.31424 120.31942 40139 ft 487 kts 27°
2026-05-06 13:02 27.38093 120.36667 40150 ft 486 kts 27°
2026-05-06 13:02 27.43812 120.40734 40142 ft 487 kts 27°
2026-05-06 13:03 27.49525 120.44795 40139 ft 487 kts 27°
2026-05-06 13:03 27.54303 120.48197 40140 ft 487 kts 27°
2026-05-06 13:04 27.60040 120.52287 40137 ft 487 kts 27°
2026-05-06 13:04 27.65776 120.56387 40140 ft 487 kts 27°
2026-05-06 13:05 27.71499 120.60404 40137 ft 484 kts 23°
2026-05-06 13:05 27.77732 120.63016 40136 ft 470 kts
2026-05-06 13:06 27.84143 120.63922 40142 ft 467 kts
2026-05-06 13:06 27.90636 120.64511 40140 ft 467 kts 359°
2026-05-06 13:07 27.97124 120.65065 40141 ft 467 kts 359°
2026-05-06 13:07 28.03576 120.65646 40139 ft 467 kts 360°
2026-05-06 13:08 28.10072 120.66276 40142 ft 468 kts 360°
2026-05-06 13:08 28.16576 120.66918 40139 ft 468 kts
2026-05-06 13:09 28.23029 120.67555 39933 ft 466 kts
2026-05-06 13:09 28.26268 120.67875 39394 ft 467 kts
2026-05-06 13:09 28.29527 120.68195 38732 ft 470 kts
2026-05-06 13:09 28.32796 120.68516 37960 ft 472 kts
2026-05-06 13:10 28.36039 120.68834 37262 ft 473 kts
2026-05-06 13:10 28.39326 120.69159 36671 ft 472 kts
2026-05-06 13:10 28.42599 120.69483 36026 ft 472 kts
2026-05-06 13:10 28.45868 120.69809 35336 ft 473 kts
2026-05-06 13:11 28.49153 120.70141 34624 ft 474 kts
2026-05-06 13:11 28.52413 120.70468 33906 ft 476 kts
2026-05-06 13:11 28.55752 120.70802 32967 ft 480 kts
2026-05-06 13:11 28.59112 120.71137 31872 ft 488 kts
2026-05-06 13:12 28.62497 120.71474 30667 ft 498 kts 360°
2026-05-06 13:12 28.66004 120.71823 29507 ft 507 kts 360°
2026-05-06 13:12 28.69471 120.72174 28827 ft 502 kts
2026-05-06 13:12 28.72939 120.72545 28276 ft 496 kts
2026-05-06 13:13 28.76371 120.72927 27666 ft 491 kts
2026-05-06 13:13 28.79754 120.73307 27032 ft 486 kts
2026-05-06 13:13 28.83068 120.73677 26424 ft 482 kts
2026-05-06 13:13 28.86414 120.74050 25810 ft 478 kts
2026-05-06 13:14 28.89714 120.74495 25211 ft 477 kts
2026-05-06 13:14 28.92928 120.75445 24792 ft 476 kts 16°
2026-05-06 13:14 28.95945 120.76946 24652 ft 480 kts 22°
2026-05-06 13:14 28.98938 120.78659 24618 ft 481 kts 24°
2026-05-06 13:15 29.01910 120.80412 24615 ft 481 kts 24°
2026-05-06 13:15 29.04883 120.82178 24627 ft 481 kts 24°
2026-05-06 13:15 29.07852 120.83954 24619 ft 481 kts 24°
2026-05-06 13:15 29.10821 120.85731 24610 ft 481 kts 24°
2026-05-06 13:16 29.13792 120.87511 24611 ft 481 kts 24°
2026-05-06 13:16 29.16760 120.89292 24609 ft 481 kts 24°
2026-05-06 13:16 29.19685 120.91049 24607 ft 481 kts 24°
2026-05-06 13:16 29.22654 120.92835 24606 ft 481 kts 24°
2026-05-06 13:17 29.25616 120.94617 24608 ft 481 kts 25°
2026-05-06 13:17 29.28573 120.96399 24606 ft 481 kts 24°
2026-05-06 13:17 29.31542 120.98188 24604 ft 480 kts 24°
2026-05-06 13:17 29.34488 120.99963 24603 ft 480 kts 24°
2026-05-06 13:18 29.37456 121.01756 24408 ft 476 kts 25°
2026-05-06 13:18 29.40346 121.03503 23803 ft 473 kts 25°
2026-05-06 13:18 29.43262 121.05265 23132 ft 471 kts 25°
2026-05-06 13:18 29.46137 121.07004 22478 ft 467 kts 25°
2026-05-06 13:19 29.49009 121.08743 21883 ft 462 kts 25°
2026-05-06 13:19 29.51831 121.10451 21282 ft 458 kts 25°
2026-05-06 13:19 29.54651 121.12162 20644 ft 455 kts 25°
2026-05-06 13:19 29.57453 121.13860 20045 ft 450 kts 25°
2026-05-06 13:20 29.60191 121.15519 19494 ft 446 kts 25°
2026-05-06 13:20 29.62908 121.17169 18943 ft 442 kts 25°
2026-05-06 13:20 29.65630 121.18824 18368 ft 439 kts 25°
2026-05-06 13:20 29.68302 121.20447 17785 ft 435 kts 25°
2026-05-06 13:21 29.70988 121.22080 17215 ft 431 kts 25°
2026-05-06 13:21 29.73605 121.23672 16809 ft 426 kts 26°
2026-05-06 13:21 29.76240 121.25274 16688 ft 426 kts 26°
2026-05-06 13:21 29.78829 121.26850 16685 ft 425 kts 26°
2026-05-06 13:22 29.81447 121.28444 16688 ft 424 kts 26°
2026-05-06 13:22 29.84067 121.30041 16691 ft 424 kts 26°
2026-05-06 13:22 29.86681 121.31636 16689 ft 424 kts 26°
2026-05-06 13:22 29.89294 121.33232 16690 ft 424 kts 26°
2026-05-06 13:23 29.91874 121.34827 16690 ft 424 kts 26°
2026-05-06 13:23 29.94470 121.36451 16689 ft 424 kts 26°
2026-05-06 13:23 29.97071 121.38080 16688 ft 424 kts 26°
2026-05-06 13:23 29.99668 121.39707 16686 ft 424 kts 26°
2026-05-06 13:24 30.02267 121.41334 16687 ft 424 kts 26°
2026-05-06 13:24 30.04828 121.42938 16685 ft 424 kts 26°
2026-05-06 13:24 30.07427 121.44567 16681 ft 424 kts 26°
2026-05-06 13:24 30.10018 121.46191 16680 ft 424 kts 26°
2026-05-06 13:25 30.12597 121.47809 16686 ft 424 kts 26°
2026-05-06 13:25 30.15195 121.49440 16672 ft 425 kts 26°
2026-05-06 13:25 30.17792 121.51071 16663 ft 424 kts 26°
2026-05-06 13:25 30.20381 121.52699 16234 ft 422 kts 26°
2026-05-06 13:26 30.22955 121.54319 15682 ft 417 kts 27°
2026-05-06 13:26 30.25496 121.55906 15130 ft 411 kts 21°
2026-05-06 13:26 30.28225 121.56774 14597 ft 404 kts